EW8832 Weather Reports


Display with metric or nautical units.
time (UTC)temp
F
wind
direction
speed
MPH
gust
MPH
rain 1hr
in
rain 24hr
in
rain mn
in
humidity
%
barometer
mb
20260504081552 63 208 6.0 14.0 0.00 0.00 0.00 58 1009.1
20260504080109 64 248 7.0 12.0 0.00 0.00 0.00 58 1009.2
20260504050024 66 233 4.0 9.0 0.00 0.00 0.00 58 1010.8
20260504044522 67 256 5.0 10.0 0.00 0.00 0.00 56 1010.8
20260504043023 67 208 6.0 14.0 0.00 0.00 0.00 56 1010.9
20260504041522 67 220 5.0 14.0 0.00 0.00 0.00 56 1011.0
20260504040037 67 219 5.0 12.0 0.00 0.00 0.00 56 1011.0
20260504034523 67 222 3.0 9.0 0.00 0.00 0.00 55 1011.1
20260504033022 67 213 4.0 11.0 0.00 0.00 0.00 55 1011.1
20260504031519 67 229 5.0 9.0 0.00 0.00 0.00 55 1011.1
20260504030018 67 229 4.0 8.0 0.00 0.00 0.00 55 1011.2
20260504024517 67 189 3.0 10.0 0.00 0.00 0.00 55 1011.1
20260504023017 68 217 4.0 9.0 0.00 0.00 0.00 54 1011.0
20260504021517 68 194 4.0 8.0 0.00 0.00 0.00 55 1010.9
20260504020016 68 214 1.0 5.0 0.00 0.00 0.00 55 1010.8
20260504014523 69 188 3.0 6.0 0.00 0.00 0.00 54 1010.8
20260504013016 70 196 3.0 6.0 0.00 0.00 0.00 52 1010.7
20260504011515 71 202 3.0 7.0 0.00 0.00 0.00 50 1010.7
20260504010014 72 211 2.0 6.0 0.00 0.00 0.00 48 1010.5
20260504004514 74 199 2.0 6.0 0.00 0.00 0.00 46 1010.6
20260504003013 75 246 2.0 6.0 0.00 0.00 0.00 44 1010.7
20260504001511 76 232 2.0 9.0 0.00 0.00 0.00 41 1010.8
20260504000010 77 237 1.0 10.0 0.00 0.00 0.00 39 1011.0
20260503234509 78 222 5.0 11.0 0.00 0.00 0.00 36 1011.0
20260503233009 78 236 4.0 14.0 0.00 0.00 0.00 35 1011.1
20260503231508 79 243 7.0 15.0 0.00 0.00 0.00 32 1011.1
20260503230007 79 220 7.0 13.0 0.00 0.00 0.00 32 1011.2
20260503224508 79 238 8.0 15.0 0.00 0.00 0.00 32 1011.2
20260503223006 78 235 7.0 12.0 0.00 0.00 0.00 32 1011.2
20260503221503 78 234 6.0 15.0 0.00 0.00 0.00 41 1011.4
20260503220001 78 272 5.0 12.0 0.00 0.00 0.00 40 1011.5
20260503214559 78 229 5.0 12.0 0.00 0.00 0.00 42 1011.8
20260503213058 78 219 5.0 14.0 0.00 0.00 0.00 44 1012.0
20260503211557 78 172 4.0 19.0 0.00 0.00 0.00 46 1012.3
20260503210052 77 207 5.0 12.0 0.00 0.00 0.00 45 1012.6
20260503204551 77 222 7.0 14.0 0.00 0.00 0.00 46 1013.0
20260503203049 77 178 4.0 11.0 0.00 0.00 0.00 45 1013.2
20260503201546 77 266 4.0 15.0 0.00 0.00 0.00 46 1013.5
20260503200047 76 267 8.0 14.0 0.00 0.00 0.00 43 1013.7
20260503194543 76 233 8.0 15.0 0.00 0.00 0.00 46 1013.9
20260503193044 75 251 7.0 16.0 0.00 0.00 0.00 50 1014.2
20260503191536 74 150 6.0 12.0 0.00 0.00 0.00 49 1014.4
20260503190033 74 196 6.0 11.0 0.00 0.00 0.00 51 1014.6
20260503184531 73 204 6.0 11.0 0.00 0.00 0.00 50 1014.7
20260503183028 73 237 8.0 15.0 0.00 0.00 0.00 49 1014.9
20260503181526 73 269 6.0 17.0 0.00 0.00 0.00 49 1015.1
20260503180026 72 209 8.0 16.0 0.00 0.00 0.00 49 1015.4
20260503174528 72 241 8.0 19.0 0.00 0.00 0.00 48 1015.7
20260503173023 71 205 6.0 19.0 0.00 0.00 0.00 50 1015.8
20260503171522 70 209 9.0 14.0 0.00 0.00 0.00 49 1016.0
20260503100111 40 271 1.0 3.0 0.00 0.00 0.00 90 1017.9